Home   Weather   Norfolk   Past weeks

Flag for Canada Past Weather in Norfolk, Ontario, Canada — Yesterday and Last 2 Weeks

Now
57 °F

Refreshingly cool.


Feels Like: 56 °F
Forecast: N/A
Wind: 6 mph from Northeast

Location: Delhi Cs Ont

Current Time: Apr 24, 2017 at 5:27:39 pm

Latest Report: Apr 24, 2017 at 5:00 pm


Visibility: N/A

Pressure: 30.03 "Hg

Humidity: 45%

Dew Point: 36 °F

Location of NorfolkLocation

Past Weather in Norfolk — Graph

°F

Norfolk Temperature Yesterday

Maximum temperature yesterday: 66 °F (at 4:00 pm)
Minimum temperature yesterday: 30 °F (at 7:00 am)
Average temperature yesterday: 49 °F

High & Low Weather Summary for the Past Weeks

 TemperatureHumidityPressure
High72 °F (Apr 10, 4:00 pm)100% (Apr 20, 3:00 pm)30.53 "Hg (Apr 20, 3:00 pm)
Low29 °F (Apr 13, 7:00 am)21% (Apr 9, 4:00 pm)29.78 "Hg (Apr 16, 10:00 am)
Average51 °F66%30.09 "Hg
* Reported Apr 9 4:00 pm — Apr 24 4:00 pm, Norfolk, Weather by CustomWeather, © 2017

Note: Actual official high and low records may vary slightly from our data, if they occured in-between our weather recording intervals... More about our weather records

Advertising

Norfolk Weather History for the Previous 24 Hours

Scroll right to see more
 ConditionsComfort  
Time TempWeatherWind HumidityBarometerVisibility
4:00 pm
Mon, Apr 24
60 °FRefreshingly cool.6 mph46%30.04 "HgN/A
3:00 pm60 °FRefreshingly cool.7 mph50%30.06 "HgN/A
2:00 pm62 °FRefreshingly cool.5 mph48%30.07 "HgN/A
1:00 pm61 °FRefreshingly cool.6 mph49%30.09 "HgN/A
12:00 pm59 °FRefreshingly cool.5 mph48%30.10 "HgN/A
11:00 am56 °FRefreshingly cool.5 mph53%30.11 "HgN/A
10:00 am53 °FCool.3 mph61%30.13 "HgN/A
9:00 am50 °FCool.3 mph67%30.12 "HgN/A
8:00 am46 °FCool.3 mph71%30.11 "HgN/A
7:00 am40 °FQuite cool.1 mph83%30.11 "HgN/A
6:00 am41 °FQuite cool.2 mph81%30.09 "HgN/A
5:00 am37 °FChilly.1 mph89%30.09 "HgN/A
4:00 am42 °FQuite cool.2 mph79%30.08 "HgN/A
3:00 am39 °FChilly.1 mph84%30.07 "HgN/A
2:00 am40 °FChilly.No wind86%30.07 "HgN/A
1:00 am41 °FQuite cool.1 mph78%30.07 "HgN/A
12:00 am44 °FQuite cool.2 mph69%30.08 "HgN/A
11:00 pm
Sun, Apr 23
46 °FCool.1 mph64%30.08 "HgN/A
10:00 pm48 °FCool.1 mph58%30.06 "HgN/A
9:00 pm53 °FCool.No wind43%30.06 "HgN/A
8:00 pm59 °FRefreshingly cool.2 mph32%30.05 "HgN/A
7:00 pm62 °FMild.6 mph28%30.06 "HgN/A
6:00 pm63 °FMild.7 mph27%30.05 "HgN/A
5:00 pm64 °FMild.9 mph30%30.04 "HgN/A
Weather by CustomWeather, © 2017

See weather overviewHow to use our weather pages